Weather Roundup
Issued by NWS

Home | Current Version | Previous Version | Text Only | Print | Product List | Glossary On
Versions: 1 2 3 4 5 6 7 8 9 10 11 12 13 14 15 16 17 18 19 20 21 22 23 24 25 26 27 28 29 30 31 32 33 34 35 36 37 38 39 40 41 42 43 44 45 46 47 48 49 50
734
NZUS93 KARX 262259
HRRWXR

CURRENT HOURLY OBSERVATIONS ACROSS
MUCH OF THE UPPER MISSISSIPPI VALLEY
NATIONAL WEATHER SERVICE LA CROSSE WI
600 PM CDT THU MAY 26 2016


...SOUTHEAST MINNESOTA...


CITY           SKY/WX    TMP DP  RH WIND       PRES   REMARKS
ROCHESTER      SUNNY     75  58  55 W10       29.85R
ROCHESTER/MAYO FAIR      78  51  37 W6        29.84R
WINONA         SUNNY     81  52  36 W7        29.81R
AUSTIN         MOSUNNY   75  52  43 SW5       29.84R
ALBERT LEA     CLOUDY    77  54  44 CALM      29.84R
DODGE CENTER   SUNNY     77  48  36 W8        29.85R
PRESTON        CLOUDY    75  56  51 W8        29.86R
OWATONNA       CLOUDY    77  52  41 SW7       29.84R
FARIBAULT      NOT AVBL
$$

...ELSEWHERE IN MINNESOTA...


CITY           SKY/WX    TMP DP  RH WIND       PRES   REMARKS
MINNEAPOLIS    PTSUNNY   79  50  36 SW8       29.78R
INTNL FALLS    MOSUNNY   74  51  44 W9        29.71F
DULUTH         MOSUNNY   61  52  72 SE7       29.76F
RED WING       SUNNY     81  46  30 W8        29.79R
REDWOOD FALLS  PTSUNNY   81  47  30 W5        29.77S
MANKATO        CLOUDY    77  48  36 SW5       29.82R
WORTHINGTON    CLOUDY    74  54  49 SE9       29.84
FAIRMONT       CLOUDY    77  41  27 SE5       29.83R
$$

...SOUTHWEST WISCONSIN...


CITY           SKY/WX    TMP DP  RH WIND       PRES   REMARKS
LA CROSSE      SUNNY     81  56  42 W8        29.80R
PRAIRIE DU CHI CLOUDY    81  56  42 W6        29.80R
BOSCOBEL       CLOUDY    82  58  43 W5        29.81R
LONE ROCK      NOT AVBL
PLATTEVILLE    CLOUDY    82  53  36 W5        29.82R
FORT MC COY    MOSUNNY   78  58  50 W7        29.80S
MAUSTON-NEW LI CLEAR     80  60  50 W6        29.78F
VIROQUA        FAIR      79  57  46 W6        29.83R
WIS DELLS      SUNNY     81  52  36 W6        29.80S
$$

...ELSEWHERE IN WISCONSIN...


CITY           SKY/WX    TMP DP  RH WIND       PRES   REMARKS
MILWAUKEE      PTSUNNY   84  59  42 W7        29.80F
MADISON        PTSUNNY   83  54  36 CALM      29.80S
GREEN BAY      SUNNY     81  58  45 W12       29.79F
EAU CLAIRE     NOT AVBL
BLACK RVR FLS  FAIR      82  52  35 SW10      29.78F
MEDFORD        SUNNY     74  58  57 W8        29.80F
WAUSAU         MOSUNNY   77  56  48 W8        29.78F
WIS RAPIDS     SUNNY     80  54  40 W8        29.80F
MARSHFIELD     MOSUNNY   78  57  48 W8        29.79F
RICE LAKE      SUNNY     79  47  33 W9        29.78F
$$

...NORTHEAST IOWA...


CITY           SKY/WX    TMP DP  RH WIND       PRES   REMARKS
WATERLOO       CLOUDY    78  59  51 NW5       29.83R
DUBUQUE        CLOUDY    79  60  52 N7        29.84R
DECORAH        MOSUNNY   79  59  50 VRB6      29.82R
MASON CITY     CLOUDY    76  63  64 S5        29.85R
CHARLES CITY   CLOUDY    79  55  44 CALM      29.85R
OELWEIN        CLOUDY    79  55  44 W6        29.85R
$$

...ELSEWHERE IN IOWA...


CITY           SKY/WX    TMP DP  RH WIND       PRES   REMARKS
DES MOINES     TSTM      74  68  81 S15       29.85S
IOWA CITY      CLOUDY    83  60  45 CALM      29.83R
FORT DODGE     CLOUDY    75  61  60 SE3       29.86R
MARSHALLTOWN   CLOUDY    76  63  64 SE7       29.83R
CEDAR RAPIDS   CLOUDY    80  62  54 CALM      29.83R
$$

...NORTHERN ILLINOIS...


CITY           SKY/WX    TMP DP  RH WIND       PRES   REMARKS
CHICAGO-OHARE  PTSUNNY   82  64  54 SW6       29.81F
CHICAGO-MIDWAY PTSUNNY   85  62  46 S9        29.81F
MOLINE         CLOUDY    85  62  46 S6        29.81R
ROCKFORD       CLOUDY    83  62  49 SW7       29.84R
PEORIA         SUNNY     84  66  54 S10       29.81F
$$

NOTE: "FAIR" INDICATES FEW OR NO CLOUDS BELOW 12,000 FEET WITH NO
SIGNIFICANT WEATHER AND/OR OBSTRUCTIONS TO VISIBILITY. WIND
SPEEDS ARE IN MILES-PER-HOUR.




USA.gov is the U.S. government's official web portal to all federal, state and local government web resources and services.